Temp
-15 -14 -15 -14 -12 -11 -10 -9 -9 -8 -8 -8 -7 -9 -9 -9 -8 -9 -9 -8 -9 -8 -8 -9 -8 -8 -8 -8 -7 -7 -8 -8 -9 -9 -9 -9 -9 -10 -11 -11 -11 -11 -12
-17 -15 -15 -15 -14 -12 -11 -10 -9 -8 -7 -8 -8 -8 -9 -9 -8 -8 -9 -9 -10 -8 -8 -8 -8 -8 -8 -8 -7 -8 -8 -8 -9 -9 -9 -9 -9 -10 -11 -11 -11 -11 -12
-17 -16 -15 -15 -14 -13 -11 -11 -8 -9 -9 -8 -9 -9 -9 -8 -8 -9 -9 -9 -11 -9 -8 -9 -8 -8 -8 -8 -7 -8 -8 -9 -9 -9 -9 -9 -9 -10 -11 -11 -10 -11 -12
-17 -16 -15 -15 -14 -14 -12 -11 -10 -9 -9 -9 -9 -10 -8 -8 -9 -9 -9 -9 -9 -8 -9 -8 -9 -9 -8 -8 -7 -8 -8 -9 -9 -9 -9 -9 -9 -10 -11 -11 -11 -11 -12
-17 -16 -15 -14 -15 -14 -12 -12 -10 -9 -10 -9 -9 -9 -9 -9 -9 -9 -10 -9 -9 -8 -8 -9 -9 -9 -8 -8 -8 -8 -9 -9 -9 -9 -9 -9 -9 -10 -10 -11 -11 -12 -12
-17 -16 -15 -15 -15 -14 -12 -12 -10 -10 -10 -10 -9 -9 -9 -9 -9 -11 -10 -10 -9 -8 -9 -9 -9 -9 -8 -8 -8 -8 -9 -9 -9 -9 -9 -9 -9 -10 -11 -11 -11 -12 -12
-17 -16 -16 -16 -15 -13 -12 -12 -11 -12 -11 -10 -10 -10 -9 -10 -9 -10 -11 -10 -9 -9 -9 -9 -9 -9 -9 -8 -8 -8 -9 -9 -9 -9 -9 -9 -9 -9 -10 -11 -11 -12 -12
-16 -16 -15 -16 -16 -15 -12 -10 -12 -13 -12 -12 -11 -10 -10 -9 -9 -10 -10 -10 -10 -10 -10 -10 -9 -9 -10 -8 -8 -9 -9 -9 -9 -9 -9 -9 -9 -10 -10 -11 -11 -12 -12
-16 -16 -16 -15 -15 -15 -14 -13 -13 -13 -11 -12 -11 -11 -10 -9 -9 -9 -9 -9 -9 -10 -10 -10 -9 -10 -10 -9 -9 -9 -9 -9 -10 -10 -9 -9 -10 -10 -10 -11 -11 -11 -12
-16 -16 -16 -15 -16 -16 -13 -12 -13 -13 -11 -11 -11 -10 -10 -9 -9 -9 -10 -9 -9 -10 -10 -10 -10 -10 -10 -9 -9 -9 -9 -9 -10 -10 -9 -9 -10 -10 -11 -11 -11 -11 -12
-16 -15 -15 -15 -14 -15 -15 -13 -14 -13 -11 -11 -10 -10 -10 -9 -9 -9 -10 -10 -10 -10 -10 -10 -10 -10 -10 -10 -9 -10 -9 -9 -10 -10 -10 -10 -10 -10 -10 -11 -11 -12 -12
-16 -16 -15 -15 -15 -15 -15 -14 -13 -12 -10 -10 -10 -10 -10 -9 -9 -9 -10 -10 -10 -10 -10 -10 -11 -10 -10 -10 -10 -10 -9 -10 -10 -10 -10 -10 -10 -10 -11 -11 -11 -11 -12
-16 -16 -16 -16 -15 -15 -15 -15 -13 -13 -11 -10 -10 -10 -10 -9 -9 -9 -9 -10 -10 -10 -9 -10 -10 -10 -10 -10 -10 -10 -9 -10 -10 -10 -10 -10 -10 -10 -11 -11 -11 -11 -12
-16 -16 -16 -17 -16 -14 -14 -15 -13 -11 -10 -10 -10 -10 -9 -9 -9 -10 -9 -10 -9 -9 -10 -10 -10 -10 -11 -10 -10 -10 -10 -10 -10 -10 -10 -10 -10 -11 -11 -12 -12 -12 -12
-16 -16 -17 -16 -15 -14 -13 -14 -13 -11 -10 -10 -10 -10 -10 -10 -10 -10 -11 -11 -11 -10 -10 -10 -10 -10 -11 -10 -10 -10 -10 -10 -10 -11 -11 -11 -11 -11 -11 -11 -12 -12 -12
-16 -16 -17 -16 -15 -13 -12 -13 -12 -11 -11 -10 -10 -10 -10 -10 -11 -10 -11 -11 -10 -9 -10 -10 -10 -11 -12 -10 -10 -10 -10 -10 -10 -11 -11 -11 -11 -11 -11 -12 -12 -12 -12
-16 -17 -16 -16 -14 -13 -12 -12 -11 -11 -10 -11 -11 -11 -11 -11 -10 -10 -10 -10 -9 -9 -10 -9 -10 -10 -12 -11 -11 -11 -10 -11 -11 -11 -11 -11 -11 -11 -11 -12 -12 -12 -12
-16 -16 -15 -14 -14 -13 -11 -11 -11 -11 -11 -10 -12 -11 -11 -11 -11 -10 -10 -10 -10 -10 -10 -10 -10 -10 -11 -11 -12 -12 -11 -11 -11 -11 -11 -11 -12 -12 -12 -12 -12 -13 -13
-16 -16 -15 -14 -14 -14 -12 -12 -11 -11 -11 -12 -12 -11 -11 -11 -11 -11 -10 -10 -10 -10 -10 -10 -10 -11 -12 -13 -13 -12 -12 -11 -11 -11 -11 -12 -12 -12 -12 -12 -12 -13 -13
-16 -15 -15 -14 -13 -13 -12 -12 -12 -12 -12 -12 -12 -11 -11 -11 -11 -11 -11 -10 -10 -10 -10 -10 -10 -10 -11 -14 -14 -12 -12 -11 -12 -12 -12 -12 -12 -12 -12 -13 -13 -13 -13
-16 -15 -15 -14 -13 -13 -13 -12 -12 -12 -12 -12 -12 -11 -10 -11 -11 -11 -10 -10 -10 -10 -10 -10 -10 -11 -14 -14 -13 -12 -12 -13 -13 -12 -13 -13 -13 -13 -13 -13 -13 -13 -14
-15 -15 -15 -14 -14 -13 -13 -13 -13 -12 -12 -12 -12 -11 -11 -11 -11 -11 -11 -11 -11 -11 -10 -11 -11 -12 -13 -14 -13 -12 -13 -13 -13 -13 -14 -13 -13 -13 -13 -13 -14 -14 -14
-16 -15 -15 -15 -14 -14 -14 -13 -13 -13 -13 -13 -12 -12 -12 -12 -11 -11 -11 -11 -11 -12 -11 -11 -11 -13 -14 -14 -13 -13 -14 -13 -13 -13 -14 -14 -14 -13 -14 -14 -14 -14 -14
-15 -15 -15 -15 -14 -14 -14 -14 -13 -13 -13 -12 -12 -12 -12 -12 -12 -12 -11 -11 -11 -12 -12 -12 -12 -13 -14 -14 -14 -14 -14 -13 -13 -15 -15 -14 -14 -14 -14 -14 -14 -14 -15
-15 -15 -15 -14 -13 -14 -14 -13 -13 -13 -12 -13 -12 -13 -12 -12 -12 -12 -12 -11 -11 -11 -12 -12 -12 -13 -14 -14 -15 -14 -14 -14 -14 -15 -15 -15 -14 -14 -14 -15 -15 -15 -15
-15 -15 -15 -14 -13 -13 -13 -13 -13 -13 -13 -13 -13 -13 -13 -12 -12 -12 -12 -12 -12 -11 -11 -11 -12 -13 -14 -15 -14 -14 -13 -14 -14 -15 -15 -15 -15 -15 -15 -15 -15 -15 -15
Height
5663 5670 5674 5681 5689 5700 5713 5723 5732 5739 5743 5755 5758 5765 5782 5789 5797 5803 5806 5811 5814 5818 5821 5824 5825 5824 5824 5821 5819 5818 5817 5815 5812 5807 5802 5797 5791 5783 5777 5771 5763 5755 5743
5648 5658 5666 5675 5679 5689 5704 5716 5727 5736 5737 5749 5750 5759 5770 5781 5790 5794 5798 5803 5807 5810 5815 5817 5820 5819 5819 5816 5816 5815 5813 5811 5808 5804 5801 5794 5788 5782 5776 5770 5762 5753 5743
5636 5645 5653 5664 5670 5681 5692 5706 5720 5729 5733 5739 5746 5755 5765 5773 5783 5786 5791 5794 5799 5804 5808 5811 5813 5813 5814 5812 5813 5811 5809 5807 5804 5801 5798 5792 5786 5781 5775 5767 5760 5752 5744
5621 5633 5644 5655 5663 5673 5684 5697 5701 5714 5726 5732 5743 5752 5757 5763 5772 5778 5784 5787 5794 5799 5802 5805 5807 5807 5808 5808 5808 5807 5805 5802 5801 5798 5795 5789 5783 5779 5772 5765 5756 5749 5742
5614 5629 5636 5646 5657 5669 5678 5689 5697 5699 5714 5721 5735 5742 5748 5757 5762 5769 5775 5780 5787 5793 5795 5799 5800 5801 5801 5803 5804 5803 5801 5799 5798 5795 5792 5785 5781 5776 5770 5762 5757 5748 5739
5606 5619 5632 5638 5650 5659 5669 5678 5692 5692 5699 5714 5726 5734 5743 5750 5756 5763 5769 5773 5780 5786 5788 5792 5794 5796 5797 5799 5799 5798 5796 5796 5794 5792 5788 5782 5777 5773 5769 5761 5754 5746 5737
5598 5610 5622 5631 5643 5652 5661 5669 5678 5680 5692 5703 5714 5723 5734 5740 5746 5753 5760 5767 5774 5777 5781 5785 5787 5790 5792 5794 5794 5792 5792 5792 5790 5789 5784 5779 5776 5771 5767 5761 5754 5746 5738
5594 5604 5612 5621 5633 5638 5643 5660 5667 5675 5686 5694 5703 5715 5723 5729 5735 5745 5752 5760 5764 5769 5775 5777 5781 5784 5787 5788 5788 5787 5789 5788 5787 5784 5779 5776 5772 5768 5763 5758 5751 5746 5738
5588 5598 5607 5613 5623 5632 5638 5647 5655 5664 5680 5691 5698 5708 5717 5724 5731 5738 5745 5750 5755 5762 5766 5769 5773 5776 5780 5781 5782 5782 5784 5783 5782 5779 5775 5772 5769 5764 5760 5755 5750 5743 5736
5581 5590 5598 5607 5615 5621 5629 5637 5645 5656 5670 5683 5695 5702 5709 5715 5725 5731 5737 5743 5748 5754 5759 5761 5765 5770 5774 5774 5776 5777 5779 5778 5777 5774 5771 5768 5766 5761 5757 5752 5746 5740 5735
5575 5582 5590 5598 5605 5611 5616 5628 5636 5648 5662 5675 5685 5693 5702 5710 5717 5724 5730 5736 5740 5745 5751 5753 5757 5763 5766 5768 5771 5772 5773 5773 5772 5770 5766 5763 5762 5757 5754 5749 5744 5738 5733
5568 5575 5583 5591 5596 5605 5612 5621 5629 5641 5655 5667 5677 5686 5694 5703 5709 5716 5723 5728 5733 5738 5742 5745 5750 5756 5758 5762 5765 5767 5767 5768 5766 5764 5762 5759 5756 5753 5751 5747 5742 5737 5731
5558 5567 5575 5579 5586 5598 5603 5613 5622 5632 5645 5661 5669 5679 5689 5694 5700 5708 5715 5719 5724 5729 5734 5738 5743 5748 5751 5756 5758 5761 5762 5762 5760 5759 5757 5756 5754 5750 5746 5743 5738 5733 5729
5551 5559 5566 5569 5577 5588 5595 5607 5618 5629 5640 5651 5662 5673 5671 5682 5691 5699 5704 5711 5716 5721 5727 5732 5737 5740 5745 5749 5752 5754 5756 5756 5755 5754 5752 5751 5749 5747 5743 5739 5736 5731 5726
5545 5551 5556 5562 5569 5580 5593 5604 5612 5624 5634 5644 5653 5658 5669 5678 5687 5692 5697 5702 5708 5712 5720 5725 5729 5733 5739 5742 5745 5748 5749 5749 5749 5748 5746 5745 5744 5742 5740 5736 5732 5728 5724
5540 5544 5550 5556 5565 5577 5592 5601 5607 5621 5629 5634 5645 5655 5664 5671 5678 5683 5689 5694 5700 5705 5712 5717 5721 5725 5730 5735 5739 5740 5741 5742 5743 5742 5741 5739 5739 5736 5734 5731 5728 5723 5720
5534 5541 5547 5554 5565 5576 5586 5597 5606 5614 5621 5631 5640 5652 5656 5664 5670 5676 5681 5686 5691 5696 5702 5708 5712 5716 5720 5727 5731 5732 5734 5736 5736 5734 5734 5733 5733 5731 5728 5726 5724 5719 5715
5530 5535 5543 5554 5562 5573 5585 5593 5603 5612 5622 5626 5635 5643 5652 5659 5664 5667 5671 5676 5682 5688 5692 5698 5703 5708 5715 5720 5723 5725 5728 5729 5729 5728 5727 5727 5726 5725 5722 5721 5719 5715 5711
5526 5532 5542 5552 5560 5569 5580 5591 5600 5607 5611 5621 5632 5641 5648 5653 5656 5660 5664 5668 5674 5680 5685 5690 5696 5701 5706 5711 5716 5719 5721 5722 5721 5720 5720 5720 5719 5718 5716 5714 5713 5710 5706
5521 5531 5540 5548 5558 5571 5578 5587 5596 5604 5609 5618 5629 5637 5643 5646 5650 5655 5659 5664 5669 5673 5678 5684 5688 5691 5697 5705 5707 5711 5713 5714 5714 5713 5713 5714 5714 5711 5709 5708 5707 5704 5700
5519 5528 5536 5546 5558 5567 5579 5586 5595 5604 5610 5617 5625 5631 5638 5641 5645 5650 5655 5659 5664 5667 5672 5676 5680 5685 5689 5695 5700 5703 5705 5706 5706 5705 5706 5707 5706 5704 5703 5702 5700 5697 5694
5519 5528 5536 5544 5556 5566 5576 5584 5592 5600 5608 5615 5622 5628 5632 5636 5642 5647 5650 5654 5659 5662 5665 5668 5673 5678 5683 5688 5691 5695 5696 5697 5698 5699 5699 5700 5699 5698 5696 5695 5693 5690 5687
5521 5528 5536 5544 5556 5567 5575 5583 5591 5598 5605 5613 5620 5625 5628 5633 5638 5644 5647 5651 5655 5658 5661 5664 5667 5671 5676 5680 5683 5684 5686 5688 5688 5690 5691 5692 5692 5690 5689 5687 5685 5683 5680
5521 5529 5536 5545 5556 5566 5574 5581 5591 5597 5602 5610 5617 5621 5626 5630 5635 5640 5643 5646 5650 5652 5655 5658 5660 5663 5667 5670 5672 5675 5676 5678 5682 5681 5683 5684 5683 5682 5682 5679 5677 5675 5672
5519 5528 5535 5545 5554 5562 5571 5579 5587 5593 5599 5608 5613 5617 5622 5626 5632 5634 5637 5640 5643 5645 5647 5649 5651 5654 5656 5659 5664 5666 5667 5672 5672 5673 5674 5676 5676 5675 5674 5671 5669 5666 5664
5518 5526 5532 5541 5551 5560 5568 5575 5584 5590 5597 5604 5609 5613 5618 5620 5625 5627 5631 5633 5635 5637 5639 5640 5643 5645 5647 5652 5655 5658 5661 5662 5664 5665 5666 5668 5667 5666 5665 5663 5661 5658 5654
Wind_Speed
37 48 47 52 58 62 72 68 76 50 70 58 38 40 41 36 36 27 32 36 24 26 22 23 20 20 20 16 18 23 22 22 24 26 29 34 35 37 38 39 41 44 48
43 38 45 46 52 56 65 57 74 54 51 43 25 28 33 36 33 21 38 35 29 28 24 23 21 19 16 16 23 22 22 22 23 24 27 32 33 34 36 39 42 44 45
53 43 47 46 45 49 54 51 48 62 70 39 23 32 38 36 35 33 29 34 26 29 26 23 21 19 19 20 22 21 21 20 22 25 27 30 32 34 35 38 41 43 44
51 47 46 41 44 49 50 43 47 64 56 67 69 43 34 40 37 37 34 29 27 29 27 22 23 23 19 20 22 22 21 19 21 24 25 29 31 32 33 35 40 42 43
46 45 45 48 43 47 45 53 58 38 61 33 42 48 28 31 30 38 32 31 31 27 23 25 21 20 17 21 21 22 20 19 20 22 24 27 30 29 31 34 37 39 42
42 44 47 39 50 52 47 43 72 34 49 55 48 48 35 38 37 36 38 34 32 27 27 21 22 20 19 23 22 22 19 19 18 20 22 26 28 29 30 32 36 37 40
41 42 42 49 52 47 42 51 62 51 44 55 50 44 34 41 47 44 43 37 31 28 25 24 24 20 22 25 23 22 19 19 18 19 21 25 28 29 28 29 33 35 36
47 46 44 42 53 37 43 37 46 45 49 45 49 46 35 40 43 47 45 36 30 27 28 30 29 31 28 26 23 22 19 18 17 18 19 23 26 27 27 28 31 33 34
45 49 47 45 45 51 43 43 43 39 55 39 46 43 40 44 42 45 43 36 34 30 33 33 30 28 26 26 22 21 19 18 17 17 18 22 24 25 26 27 29 32 35
38 46 47 49 46 49 46 36 45 42 53 48 43 45 44 43 44 39 36 36 33 32 30 30 32 28 27 26 23 21 19 18 18 17 18 21 23 24 24 25 29 30 33
38 39 48 50 51 54 53 42 46 43 54 50 45 45 49 43 41 34 33 31 33 35 31 35 34 29 29 25 23 21 19 19 17 15 16 20 20 23 25 24 26 29 31
43 42 42 45 51 47 48 37 36 45 58 51 49 49 43 43 39 37 38 34 36 36 29 30 32 33 27 24 23 22 20 21 16 15 16 19 21 22 24 23 24 26 29
45 42 39 42 49 48 48 40 43 50 54 51 53 58 51 42 49 41 45 36 32 30 32 35 37 35 26 27 23 23 22 22 16 16 16 18 20 22 23 23 23 27 30
36 37 35 36 37 49 51 44 41 37 47 51 54 52 48 53 48 47 38 48 45 32 32 34 35 34 25 27 25 24 22 21 16 17 14 17 19 21 20 22 21 24 27
29 28 30 34 38 49 52 44 39 43 43 46 44 37 36 51 45 36 29 26 29 37 38 36 36 31 28 29 28 24 23 21 19 16 13 17 20 21 20 21 21 22 25
27 27 37 40 42 50 48 44 31 39 41 39 40 41 37 34 33 32 28 35 35 39 38 38 42 35 32 32 30 25 22 25 20 15 15 16 21 20 19 21 20 21 23
24 34 32 38 39 47 43 35 44 45 42 36 33 27 35 36 37 38 33 35 38 43 44 42 41 44 33 33 32 25 27 26 20 16 18 17 20 19 19 20 21 21 23
27 29 38 40 44 47 51 38 42 39 37 38 33 37 34 29 25 22 30 32 32 31 33 39 41 34 34 35 31 29 28 26 21 18 19 20 21 20 19 21 22 22 24
30 29 39 41 42 40 43 42 40 37 35 38 34 28 26 26 21 21 27 29 28 29 37 41 39 38 39 41 32 29 28 26 21 18 19 21 22 19 19 22 22 23 24
34 33 39 40 40 45 34 42 44 35 28 25 25 27 28 18 13 10 18 25 32 24 39 41 41 43 38 34 30 30 29 26 21 20 20 24 21 19 19 21 22 24 25
32 32 35 39 38 31 34 35 38 40 31 27 25 20 18 20 15 15 16 19 26 31 32 33 33 36 37 32 31 31 31 26 23 21 23 23 21 18 19 22 24 26 27
30 30 30 34 39 23 29 33 32 28 26 25 25 26 13 12 17 21 17 20 13 16 27 33 36 34 34 32 33 32 31 27 28 26 25 23 20 19 20 24 25 26 27
28 32 32 31 45 36 27 24 21 21 19 17 23 21 13 16 17 13 19 18 18 17 16 28 33 34 34 34 35 34 33 32 34 30 22 22 20 20 22 26 27 27 28
30 30 30 37 44 38 31 32 28 22 18 21 20 21 22 17 15 16 20 17 21 27 31 26 30 35 36 38 39 36 38 34 32 22 22 23 21 21 24 26 25 28 28
30 32 31 34 39 40 38 37 31 27 22 21 22 19 22 21 17 18 18 21 25 26 30 30 32 36 42 48 42 40 38 30 26 23 23 24 24 23 24 25 27 28 31
31 34 34 32 37 38 38 40 38 37 35 33 29 27 29 26 25 24 25 28 29 28 28 28 34 37 40 39 40 37 32 31 25 24 24 24 24 24 25 26 28 31 33
Wind_Direction
263 231 230 227 226 228 222 225 232 251 228 241 241 216 223 237 243 249 263 252 223 233 235 247 264 277 283 289 302 303 308 322 329 341 344 345 348 351 349 348 354 358 359
249 229 229 230 227 224 226 225 225 230 216 227 217 208 219 236 247 245 244 231 214 229 234 247 263 277 281 305 296 301 305 320 329 338 343 345 349 350 348 348 358 360 1
244 223 221 226 228 217 215 221 231 226 231 226 238 225 222 238 235 243 247 216 204 226 234 243 260 262 276 286 292 295 303 317 327 335 343 344 350 349 348 350 358 1 3
234 221 215 218 229 213 210 220 229 212 228 231 237 243 227 232 237 244 223 198 212 228 233 244 257 267 273 284 289 291 301 315 328 334 340 346 349 348 349 350 355 357 2
233 210 213 214 218 206 206 215 218 233 224 205 230 236 219 211 229 221 202 207 220 226 235 243 257 259 274 279 284 287 299 312 325 332 339 348 348 346 353 351 355 355 1
230 209 213 208 207 204 207 206 215 225 217 208 218 222 232 239 212 203 211 208 215 222 231 240 248 261 274 277 279 284 296 305 321 331 338 346 346 348 353 348 355 354 359
239 220 208 219 227 201 206 214 217 235 235 229 229 234 240 237 234 219 207 209 215 222 225 235 243 257 272 273 275 282 294 301 320 329 336 343 345 348 351 351 352 354 357
236 230 221 214 220 206 202 210 228 222 231 240 238 240 247 233 226 206 204 204 211 223 231 237 247 261 261 263 269 278 291 299 314 322 333 341 341 345 349 351 352 353 355
238 231 226 223 222 233 205 205 215 215 224 237 236 243 241 217 202 206 205 208 214 224 226 233 258 250 246 256 263 273 284 293 305 317 330 337 339 343 345 349 353 355 355
236 235 231 224 227 230 207 217 199 214 224 235 235 233 232 197 202 209 214 219 220 224 240 252 255 236 244 253 258 267 278 289 298 311 325 331 337 339 341 347 353 354 353
232 234 233 230 227 226 232 205 205 201 217 228 234 227 226 206 202 209 203 222 229 235 244 247 239 230 238 249 255 264 275 282 292 307 321 323 332 338 338 344 350 352 352
233 232 232 236 237 239 242 208 207 204 220 224 218 220 212 206 210 215 223 229 224 236 244 240 217 231 237 245 253 262 271 276 285 302 314 318 330 334 332 338 349 353 354
230 227 234 245 239 228 230 229 203 204 216 221 217 225 215 203 214 218 225 224 226 232 241 230 222 234 235 241 247 255 266 272 283 297 306 316 322 328 329 335 345 352 355
230 227 234 238 225 219 221 228 203 204 210 209 207 195 222 215 219 219 217 223 229 232 238 232 229 230 229 240 246 249 261 266 279 285 305 314 314 321 325 331 338 348 350
215 221 218 205 205 206 215 227 214 193 203 195 198 209 210 215 219 215 222 222 227 229 237 231 231 225 231 239 244 247 255 269 273 276 302 309 310 316 323 330 334 343 346
212 215 204 194 196 199 209 207 208 202 193 194 197 202 212 213 220 223 234 234 236 234 226 238 243 219 228 238 240 242 256 264 264 282 293 299 301 309 316 324 326 336 342
207 209 201 194 193 194 203 187 196 192 195 198 187 192 209 217 220 227 233 239 237 235 239 242 244 229 226 235 234 240 256 261 260 276 283 294 294 300 309 318 320 330 337
213 206 188 192 200 196 188 194 169 181 183 174 191 198 209 218 226 239 224 219 219 227 231 239 226 220 227 231 229 236 252 253 259 269 278 287 287 295 304 313 312 323 330
208 202 193 194 201 203 199 200 194 174 185 179 196 194 193 216 218 217 224 222 222 228 239 221 221 224 226 226 233 246 249 250 256 269 277 284 286 290 300 308 310 319 325
199 196 195 195 194 191 181 193 192 190 194 197 201 195 187 186 193 215 226 225 221 230 234 224 228 236 240 220 227 244 247 248 254 266 274 280 283 286 300 305 308 315 322
196 195 196 196 181 170 182 182 187 184 188 192 186 176 219 213 213 224 223 231 224 222 227 237 242 231 211 215 235 244 245 241 251 260 269 274 277 285 300 303 306 311 317
190 193 202 192 183 180 170 181 184 190 189 186 188 199 186 201 213 227 252 211 211 222 229 225 219 216 215 223 238 241 239 240 249 255 261 271 274 288 298 302 305 310 314
189 187 200 198 195 201 187 184 189 199 211 214 217 217 207 195 209 215 216 214 217 235 247 238 225 213 224 233 237 235 236 242 249 254 259 267 273 287 296 298 303 308 310
192 185 176 199 202 207 203 207 205 206 217 234 213 221 231 218 217 225 225 222 236 242 250 262 247 230 229 232 232 231 241 246 252 244 255 262 273 287 296 298 302 308 308
187 187 181 193 208 216 216 215 204 209 223 220 194 202 206 195 222 238 238 243 247 250 245 258 256 241 236 234 237 243 245 246 240 247 256 267 275 285 295 297 301 305 306
189 191 184 191 205 213 215 217 215 215 220 221 214 212 213 208 218 227 245 251 251 249 251 254 255 253 249 236 236 238 248 247 244 250 258 268 275 284 297 297 299 301 305